Weather reports worldwide

Advertisment
Saarbrücken-Ensheim, Germany (10708): temperature & dewpoint: 24.05.2020 23:00:00 - 30.05.2020 23:00:00 (CEST)Saarbrücken-Ensheim, Germany (10708): temperature 5cm & temperature -5cm: 24.05.2020 23:00:00 - 30.05.2020 23:00:00 (CEST)Saarbrücken-Ensheim, Germany (10708): temperature -20cm & temperature -100cm: 24.05.2020 23:00:00 - 30.05.2020 23:00:00 (CEST)Saarbrücken-Ensheim, Germany (10708): wind speed & gusts: 24.05.2020 23:00:00 - 30.05.2020 23:00:00 (CEST)Saarbrücken-Ensheim, Germany (10708): wind direction: 24.05.2020 23:00:00 - 30.05.2020 23:00:00 (CEST)Saarbrücken-Ensheim, Germany (10708): reduced air pressure: 24.05.2020 23:00:00 - 30.05.2020 23:00:00 (CEST)Saarbrücken-Ensheim, Germany (10708): visibility: 24.05.2020 23:00:00 - 30.05.2020 23:00:00 (CEST)Saarbrücken-Ensheim, Germany (10708): sunshine duration: 24.05.2020 23:00:00 - 30.05.2020 23:00:00 (CEST)Saarbrücken-Ensheim, Germany (10708): precipitation: 24.05.2020 23:00:00 - 30.05.2020 23:00:00 (CEST)
Date & Time tt [°C] td [°C] tt 5cm [°C] tt -5cm [°C] tt -20cm [°C] tt -100cm [°C] ff [km/h] ff [kn] fx [km/h] fx [kn] dd ppp [hPa] vv [km] sd [min] rr [mm]
30.05.2020 23:00:00 13,6 2,3 11,5 18,8 22,0 16,0 13 7 22 12 NE 1021,1 50 0 0,0
30.05.2020 22:00:00 15,6 2,3 14,2 20,3 22,7 16,0 16 8 29 15 ENE 1020,4 60 23 0,0
30.05.2020 21:00:00 16,8 2,8 15,6 22,2 23,3 16,0 16 9 34 18 NE 1019,8 10 60 0,0
30.05.2020 20:00:00 18,4 2,6 18,0 24,2 23,8 16,0 21 11 40 21 NE 1019,4 10 60 0,0
30.05.2020 19:00:00 19,7 1,7 20,2 27,2 23,9 16,0 24 13 38 20 NE 1019,1 10 60 0,0
30.05.2020 18:00:00 19,5 2,3 21,2 29,3 23,6 16,0 24 13 42 23 ENE 1019,3 10 58 0,0
30.05.2020 17:00:00 20,6 3,1 23,7 30,5 23,2 16,0 21 11 42 23 NE 1019,4 10 60 0,0
30.05.2020 16:00:00 20,7 1,6 24,0 30,7 22,5 16,0 23 12 41 22 ENE 1019,7 60 60 0,0
30.05.2020 15:00:00 19,8 2,1 24,9 30,2 21,7 16,0 18 10 42 23 NE 1020,1 10 54 0,0
30.05.2020 14:00:00 19,6 2,4 24,1 28,6 20,9 16,0 22 12 36 19 ENE 1020,6 60 46 0,0
30.05.2020 13:00:00 17,9 2,7 19,7 28,4 20,0 16,0 26 14 38 21 ENE 1021,3 60 51 0,0
30.05.2020 12:00:00 18,2 3,9 21,4 26,3 19,0 15,9 21 11 39 21 NE 1021,6 60 57 0,0
30.05.2020 11:00:00 17,3 3,5 20,1 24,0 18,2 15,9 22 12 38 20 ENE 1021,9 10 60 0,0
30.05.2020 10:00:00 15,9 4,5 19,5 20,7 17,6 15,9 15 8 28 15 ENE 1022,3 60 60 0,0
30.05.2020 09:00:00 14,2 4,7 16,6 17,4 17,3 15,9 16 9 28 15 NE 1022,6 10 60 0,0
30.05.2020 08:00:00 12,1 3,9 13,4 14,5 17,4 15,9 19 10 31 17 NE 1022,7 60 60 0,0
30.05.2020 07:00:00 10,7 3,2 10,6 13,2 17,7 15,9 18 10 29 16 NE 1022,8 10 60 0,0
30.05.2020 06:00:00 10,5 3,0 9,3 13,2 18,1 15,9 20 11 31 17 NE 1022,6 60 3 0,0
30.05.2020 05:00:00 10,6 2,9 9,1 13,6 18,6 15,9 15 8 28 15 NE 1022,7 10 0 0,0
30.05.2020 04:00:00 10,6 3,1 8,6 14,2 19,1 15,9 14 7 22 12 NE 1022,6 60 0 0,0
30.05.2020 03:00:00 11,2 3,2 9,2 14,9 19,6 15,9 13 7 22 12 NNE 1022,8 10 0 0,0
30.05.2020 02:00:00 12,0 3,4 10,0 15,5 20,2 15,9 14 8 21 11 NE 1022,6 60 0 0,0
30.05.2020 01:00:00 11,6 3,6 8,7 16,4 20,8 15,9 11 6 18 10 NE 1022,8 10 0 0,0
30.05.2020 00:00:00 12,4 2,9 8,3 17,5 21,5 15,9 9 5 15 8 NE 1022,6 60 0 0,0
29.05.2020 23:00:00 14,0 3,4 11,0 19,0 22,2 15,9 9 5 15 8 NE 1022,6 10 0 0,0
29.05.2020 22:00:00 15,5 3,4 13,4 20,6 22,8 15,9 11 6 18 10 NE 1022,3 10 20 0,0
29.05.2020 21:00:00 17,3 3,5 15,8 22,4 23,4 15,8 11 6 24 13 ENE 1021,8 60 60 0,0
29.05.2020 20:00:00 19,1 3,3 18,5 24,4 23,9 15,8 13 7 30 16 NE 1021,8 10 60 0,0
29.05.2020 19:00:00 19,4 3,1 20,1 27,1 24,0 15,8 15 8 35 19 NE 1022,1 60 45 0,0
29.05.2020 18:00:00 20,2 3,3 23,0 29,3 23,9 15,8 16 9 35 19 ENE 1022,3 10 55 0,0
29.05.2020 17:00:00 19,3 3,2 20,3 30,8 23,4 15,8 21 11 39 21 ENE 1022,7 60 44 0,0
29.05.2020 16:00:00 20,0 3,7 24,1 31,8 22,7 15,8 19 10 35 19 E 1023,2 60 59 0,0
29.05.2020 15:00:00 19,9 3,7 24,1 31,2 21,8 15,8 16 9 34 18 ENE 1023,9 60 56 0,0
29.05.2020 14:00:00 19,6 3,7 24,9 29,7 20,8 15,8 22 12 37 20 ENE 1024,3 10 50 0,0
29.05.2020 13:00:00 18,6 4,3 23,8 28,6 19,9 15,8 21 11 39 21 E 1025,2 10 49 0,0
29.05.2020 12:00:00 17,8 4,5 21,8 25,9 18,9 15,8 19 10 35 19 E 1025,8 50 50 0,0
29.05.2020 11:00:00 17,1 4,9 20,9 23,8 18,1 15,8 20 11 32 17 E 1026,3 50 60 0,0
29.05.2020 10:00:00 15,4 4,2 19,0 20,6 17,5 15,7 16 9 29 16 NE 1026,7 10 60 0,0
29.05.2020 09:00:00 14,1 3,8 16,5 17,3 17,2 15,7 15 8 24 13 ENE 1027,1 50 60 0,0
29.05.2020 08:00:00 12,0 2,9 13,4 14,2 17,3 15,7 16 9 22 12 NE 1027,5 10 60 0,0
29.05.2020 07:00:00 10,4 2,6 10,2 12,6 17,6 15,7 13 7 21 11 NE 1027,6 10 60 0,0
29.05.2020 06:00:00 8,4 1,9 6,1 12,6 18,1 15,7 13 7 21 11 NNE 1027,9 10 3 0,0
29.05.2020 05:00:00 9,5 1,7 6,8 13,3 18,6 15,7 13 7 23 13 NE 1027,6 10 0 0,0
29.05.2020 04:00:00 9,2 1,4 6,5 13,9 19,1 15,7 15 8 23 13 NE 1027,8 50 0 0,0
29.05.2020 03:00:00 11,4 1,0 9,5 14,7 19,7 15,7 17 9 26 14 NNE 1027,7 50 0 0,0
29.05.2020 02:00:00 12,0 0,6 10,3 15,5 20,3 15,7 18 10 26 14 NE 1027,8 10 0 0,0
29.05.2020 01:00:00 12,6 0,5 10,7 16,5 21,0 15,7 15 8 24 13 NE 1028,0 10 0 0,0
29.05.2020 00:00:00 13,4 -0,3 11,1 17,5 21,7 15,7 13 7 23 12 NE 1027,9 10 0 0,0
28.05.2020 23:00:00 13,9 1,1 11,3 18,8 22,4 15,6 13 7 21 11 NE 1027,7 10 0 0,0
28.05.2020 22:00:00 14,2 1,6 10,0 20,6 23,2 15,6 11 6 18 10 ENE 1027,4 10 24 0,0
28.05.2020 21:00:00 17,2 1,3 15,2 22,7 23,8 15,6 9 5 26 14 ENE 1026,7 10 60 0,0
28.05.2020 20:00:00 19,1 0,9 18,4 24,8 24,4 15,6 15 8 32 17 NE 1026,7 10 60 0,0
28.05.2020 19:00:00 20,3 1,4 20,7 28,0 24,5 15,6 13 7 35 19 NE 1026,6 60 60 0,0
28.05.2020 18:00:00 20,4 1,0 22,1 30,3 24,3 15,6 21 11 34 18 NE 1027,1 10 60 0,0
28.05.2020 17:00:00 20,8 3,3 23,6 31,8 23,8 15,6 22 12 35 19 NE 1027,2 10 60 0,0
28.05.2020 16:00:00 20,7 4,1 24,6 32,6 23,1 15,6 18 10 33 18 NE 1027,7 10 60 0,0
28.05.2020 15:00:00 20,5 4,2 25,0 32,4 22,1 15,6 21 11 36 19 ENE 1028,2 10 60 0,0
28.05.2020 14:00:00 20,0 7,3 24,8 31,4 21,0 15,6 18 10 35 19 NE 1028,5 50 60 0,0
28.05.2020 13:00:00 18,8 7,4 23,7 28,7 19,9 15,6 9 5 36 19 NNE 1029,1 50 59 0,0
28.05.2020 12:00:00 18,2 8,1 22,3 25,5 19,1 15,5 21 11 34 18 NNE 1029,6 10 58 0,0
28.05.2020 11:00:00 16,8 6,9 18,8 22,1 18,5 15,5 22 12 38 20 NE 1029,9 10 49 0,0
28.05.2020 10:00:00 16,6 8,1 19,3 19,8 18,2 15,5 22 12 38 21 NE 1029,7 50 52 0,0
28.05.2020 09:00:00 15,1 9,2 15,9 16,7 18,2 15,5 22 12 41 22 NE 1029,7 50 7 0,0
28.05.2020 08:00:00 14,3 8,9 14,1 16,0 18,3 15,5 21 11 34 18 NE 1029,6 10 8 0,0
28.05.2020 07:00:00 14,2 8,5 13,6 15,4 18,5 15,5 16 9 26 14 NE 1029,7 50 0 0,0
28.05.2020 06:00:00 13,0 8,2 10,7 15,3 18,9 15,5 6 4 15 8 NE 1029,7 50 0 0,0
28.05.2020 05:00:00 12,1 8,0 10,1 15,2 19,3 15,5 9 5 15 8 NNE 1029,7 10 0 0,0
28.05.2020 04:00:00 11,0 7,0 7,9 15,6 19,8 15,5 5 3 13 7 N 1030,0 50 0 0,0
28.05.2020 03:00:00 12,7 6,9 8,2 16,5 20,3 15,5 8 4 14 8 NE 1030,1 50 0 0,0
28.05.2020 02:00:00 13,2 6,9 11,2 17,1 20,9 15,5 8 4 13 7 NE 1030,5 50 0 0,0
28.05.2020 01:00:00 12,2 6,5 8,3 17,9 21,6 15,5 6 3 8 4 N 1030,8 50 0 0,0
28.05.2020 00:00:00 13,9 6,0 9,6 19,1 22,3 15,5 5 3 8 4 ENE 1030,7 10 0 0,0
27.05.2020 23:00:00 15,4 6,0 10,0 20,5 23,0 15,5 5 3 5 3 ENE 1030,6 10 0 0,0
27.05.2020 22:00:00 16,2 6,5 11,3 22,4 23,8 15,5 4 2 8 4 ENE 1030,1 10 9 0,0
27.05.2020 21:00:00 19,0 6,9 15,6 24,7 24,4 15,5 5 3 11 6 E 1029,6 50 60 0,0
27.05.2020 20:00:00 21,3 5,7 20,4 26,7 24,8 15,5 8 4 16 9 ENE 1029,4 10 60 0,0
27.05.2020 19:00:00 22,1 6,2 23,0 30,1 24,9 15,5 11 6 20 11 ENE 1029,5 50 60 0,0
27.05.2020 18:00:00 22,0 5,0 24,4 32,4 24,5 15,5 11 6 22 12 ENE 1029,8 10 60 0,0
27.05.2020 17:00:00 22,0 3,5 26,1 33,8 23,9 15,4 10 5 23 12 N 1030,3 50 60 0,0
27.05.2020 16:00:00 21,6 5,7 26,9 34,3 23,0 15,4 9 5 27 14 NE 1030,7 10 60 0,0
27.05.2020 15:00:00 21,4 6,7 28,5 33,9 21,8 15,4 11 6 29 15 NNE 1031,1 50 60 0,0
27.05.2020 14:00:00 20,6 6,9 26,7 32,2 20,6 15,4 9 5 26 14 - 1031,6 10 60 0,0
27.05.2020 13:00:00 19,5 6,4 24,6 29,4 19,5 15,4 17 9 27 14 E 1032,2 60 60 0,0
27.05.2020 12:00:00 18,8 6,0 23,9 27,6 18,4 15,4 8 4 22 12 - 1032,7 10 60 0,0
27.05.2020 11:00:00 18,0 5,3 22,0 24,3 17,4 15,4 9 5 21 11 NE 1033,3 10 60 0,0
27.05.2020 10:00:00 16,6 6,8 20,1 20,6 16,7 15,4 13 7 21 11 ENE 1033,3 10 60 0,0
27.05.2020 09:00:00 14,4 6,4 17,0 16,9 16,3 15,4 9 5 18 10 ENE 1033,7 60 60 0,0
27.05.2020 08:00:00 12,5 5,9 13,8 13,8 16,4 15,4 13 7 22 12 NE 1034,0 50 60 0,0
27.05.2020 07:00:00 10,7 6,2 10,5 12,0 16,7 15,4 13 7 21 11 NE 1034,0 10 60 0,0
27.05.2020 06:00:00 8,3 5,4 5,9 11,9 17,2 15,4 9 5 16 9 NE 1034,1 50 0 0,0
27.05.2020 05:00:00 8,8 5,3 4,9 12,5 17,7 15,4 8 4 13 7 NE 1034,2 50 0 0,0
27.05.2020 04:00:00 8,7 5,5 4,7 13,2 18,2 15,4 5 3 9 5 ENE 1034,4 50 0 0,0
27.05.2020 03:00:00 9,7 5,8 6,2 14,0 18,8 15,4 6 3 13 7 NE 1034,4 50 0 0,0
27.05.2020 02:00:00 9,9 5,4 5,7 14,8 19,4 15,4 9 5 15 8 ENE 1034,3 10 0 0,0
27.05.2020 01:00:00 10,9 6,4 7,1 15,8 20,1 15,4 9 5 17 9 ENE 1034,4 10 0 0,0
27.05.2020 00:00:00 11,2 5,5 8,4 17,0 20,8 15,4 9 5 13 7 ENE 1034,5 10 0 0,0
26.05.2020 23:00:00 12,3 5,9 9,8 18,4 21,5 15,4 9 5 16 9 ENE 1034,3 50 0 0,0
26.05.2020 22:00:00 13,7 6,3 11,1 20,1 22,2 15,4 11 6 22 12 ENE 1033,8 50 7 0,0
26.05.2020 21:00:00 16,7 6,3 15,3 22,3 22,9 15,4 15 8 21 11 ENE 1033,1 10 60 0,0
26.05.2020 20:00:00 18,6 6,4 18,3 24,5 23,3 15,4 15 8 26 14 ENE 1032,6 10 60 0,0
26.05.2020 19:00:00 19,4 6,4 19,9 27,6 23,4 15,4 16 9 29 16 ENE 1032,3 50 60 0,0
26.05.2020 18:00:00 20,4 5,7 22,7 29,9 23,1 15,4 13 7 26 14 NE 1032,1 10 60 0,0
26.05.2020 17:00:00 19,9 4,4 23,1 31,3 22,6 15,4 15 8 29 16 NE 1032,4 10 60 0,0
26.05.2020 16:00:00 19,9 3,9 23,7 31,9 21,7 15,4 16 9 32 17 ENE 1032,6 10 60 0,0
26.05.2020 15:00:00 19,9 5,2 24,8 31,7 20,7 15,4 13 7 29 16 ENE 1032,8 50 60 0,0
26.05.2020 14:00:00 18,5 4,8 23,0 30,1 19,6 15,4 16 9 27 15 ENE 1033,2 10 60 0,0
26.05.2020 13:00:00 17,9 5,5 23,2 27,4 18,6 15,4 15 8 27 15 NE 1033,7 10 59 0,0
26.05.2020 12:00:00 16,7 3,6 19,9 26,5 17,6 15,4 15 8 25 13 NE 1034,0 50 59 0,0
26.05.2020 11:00:00 16,0 5,6 20,2 23,4 16,6 15,4 13 7 26 14 ENE 1034,0 50 60 0,0
26.05.2020 10:00:00 15,4 6,6 18,9 20,2 15,9 15,4 15 8 24 13 NNE 1034,2 50 60 0,0
26.05.2020 09:00:00 14,0 7,0 16,3 16,4 15,6 15,4 11 6 21 11 NE 1034,1 10 60 0,0
26.05.2020 08:00:00 13,1 6,7 14,4 13,4 15,6 15,4 13 7 20 11 NE 1034,1 10 60 0,0
26.05.2020 07:00:00 11,7 6,5 11,6 11,6 15,9 15,4 11 6 18 10 NNE 1034,2 50 58 0,0
26.05.2020 06:00:00 9,3 6,1 6,4 11,4 16,3 15,4 11 6 18 10 NE 1034,2 10 0 0,0
26.05.2020 05:00:00 9,9 6,5 7,7 11,9 16,7 15,4 12 6 16 9 NE 1033,9 40 0 0,0
26.05.2020 04:00:00 9,1 6,5 5,6 12,5 17,2 15,4 9 5 13 7 NNE 1034,1 10 0 0,0
26.05.2020 03:00:00 11,3 7,1 7,2 13,4 17,7 15,4 11 6 16 9 NNE 1033,7 40 0 0,0
26.05.2020 02:00:00 12,3 7,2 9,5 14,2 18,2 15,4 11 6 15 8 N 1033,7 10 0 0,0
26.05.2020 01:00:00 13,4 7,6 10,6 15,1 18,7 15,4 10 5 16 8 NNE 1033,7 50 0 0,0
26.05.2020 00:00:00 14,4 7,7 12,7 16,0 19,3 15,4 9 5 16 9 NNE 1033,7 10 0 0,0
25.05.2020 23:00:00 14,2 8,0 10,3 17,1 19,9 15,4 8 4 11 6 NNE 1033,5 10 0 0,0
25.05.2020 22:00:00 15,3 7,8 12,8 18,7 20,5 15,4 9 5 13 7 N 1033,0 10 8 0,0
25.05.2020 21:00:00 16,6 7,8 14,2 20,5 20,9 15,4 7 4 14 7 N 1032,4 50 58 0,0
25.05.2020 20:00:00 17,6 7,4 17,0 22,5 21,2 15,5 10 6 18 10 N 1032,0 50 18 0,0
25.05.2020 19:00:00 18,8 7,7 20,5 24,6 21,2 15,5 12 7 22 12 NNW 1031,8 50 47 0,0
25.05.2020 18:00:00 18,8 8,0 23,0 26,1 21,0 15,5 13 7 20 11 NNW 1031,8 10 26 0,0
25.05.2020 17:00:00 17,7 7,6 19,7 26,7 20,7 15,5 6 4 21 11 NNE 1032,1 50 18 0,0
25.05.2020 16:00:00 18,7 7,7 22,7 27,6 20,1 15,5 13 7 25 14 NNE 1032,4 50 25 0,0
25.05.2020 15:00:00 17,6 6,9 20,3 27,8 19,4 15,5 16 8 27 14 N 1032,9 50 21 0,0
25.05.2020 14:00:00 17,7 7,5 21,8 27,0 18,6 15,5 16 9 28 15 N 1032,8 10 22 0,0
25.05.2020 13:00:00 17,0 8,4 20,0 26,7 17,6 15,5 15 8 30 16 NNW 1032,9 10 41 0,0
25.05.2020 12:00:00 17,0 10,1 23,2 24,2 16,6 15,5 14 7 29 16 N 1032,9 40 27 0,0
25.05.2020 11:00:00 15,0 9,5 19,3 21,0 15,9 15,5 9 5 20 11 NNW 1033,5 10 29 0,0
25.05.2020 10:00:00 13,9 9,6 19,3 17,6 15,3 15,5 8 4 16 9 NNW 1033,7 10 20 0,0
25.05.2020 09:00:00 12,7 9,4 15,3 14,8 15,1 15,5 6 3 9 5 WNW 1033,8 30 0 0,0
25.05.2020 08:00:00 10,7 8,7 12,7 13,0 15,1 15,5 4 2 5 3 - 1033,8 10 38 0,0
25.05.2020 07:00:00 9,4 8,2 10,3 11,3 15,4 15,5 4 2 5 3 W 1033,5 30 29 0,0
25.05.2020 06:00:00 8,4 7,7 5,5 11,3 15,7 15,5 5 3 8 4 WSW 1033,7 10 0 0,0
25.05.2020 05:00:00 9,8 7,9 7,2 12,0 16,1 15,5 5 3 8 4 W 1033,2 10 0 0,0
25.05.2020 04:00:00 9,8 7,9 7,1 12,8 16,4 15,5 4 2 8 4 W 1033,0 10 0 0,0
25.05.2020 03:00:00 11,1 8,2 9,0 13,1 16,8 15,5 8 4 15 8 WSW 1032,6 10 0 0,0
25.05.2020 02:00:00 11,6 8,0 9,4 13,9 17,1 15,6 10 6 16 9 NW 1032,7 45 0 0,0
25.05.2020 01:00:00 11,9 8,5 11,0 14,4 17,5 15,6 8 4 11 6 WNW 1032,9 10 0 0,0
25.05.2020 00:00:00 11,2 8,2 8,6 14,9 18,0 15,6 8 4 16 9 W 1033,0 10 0 0,0
24.05.2020 23:00:00 13,2 8,1 11,8 16,3 18,4 15,6 13 7 18 10 WNW 1032,5 10 0 0,0

tt = temperature
td = dewpoint
tt 5cm = temperature 5cm
tt -5cm = temperature -5cm
tt -20cm = temperature -20cm
tt -100cm = temperature -100cm
ff = wind speed
fx = gusts
dd = wind direction
ppp = reduced air pressure
vv = visibility
sd = sunshine duration
rr = precipitation

Next stations